Location: Newark
(35.6799°N, 139.7636°E)
Time: 11:20:35
(UTC+00:00)

Courier 1B - Pass Details

Date: 10 December 2019
Orbit: 962 x 1209 km, 28.3° (Epoch: 17 January)

Event Time Altitude Azimuth Distance (km) Brightness Sun altitude
Rises 11:00:08 0° 226° (SW) 3,862 11.1 -42.3°
Reaches altitude 10° 11:03:12 10° 215° (SW) 2,948 10.3 -43.0°
Enters shadow 11:04:20 14° 209° (SSW) 2,647 9.9 -43.2°
